This is the latest recevied weather packets stored in our database for station/object W4ZHA. If no packets are shown the sender has not sent any weather packets the latest 1 day(s).
| Time | Temp. | Humidity | Pressure | Rain* | Wind** | Luminosity | Snow |
|---|---|---|---|---|---|---|---|
| 1778029011 | 22.78° C | 57% | 1011 hPa | 0 mm | 0 m/s | 0 W/m² | - |
| 1778028708 | 22.22° C | 57% | 1011 hPa | 0 mm | 0 m/s | 0 W/m² | - |
| 1778028404 | 22.22° C | 57% | 1011 hPa | 0 mm | 0 m/s | 0 W/m² | - |
| 1778028101 | 22.22° C | 56% | 1011 hPa | 0 mm | 0 m/s | 0 W/m² | - |
| 1778027797 | 22.22° C | 57% | 1011 hPa | 0 mm | 0 m/s | 0 W/m² | - |
| 1778027494 | 22.22° C | 56% | 1011 hPa | 0 mm | 0 m/s | 0 W/m² | - |
| 1778027190 | 22.78° C | 56% | 1011.3 hPa | 0 mm | 0 m/s | 0 W/m² | - |
| 1778026886 | 22.22° C | 56% | 1011 hPa | 0 mm | 0 m/s | 0 W/m² | - |
| 1778026582 | 21.67° C | 60% | 1011.3 hPa | 0 mm | 0 m/s | 0 W/m² | - |
| 1778026279 | 21.67° C | 58% | 1011.3 hPa | 0 mm | 0 m/s | 0 W/m² | - |
| 1778025977 | 21.67° C | 60% | 1011.3 hPa | 0 mm | 0 m/s | 1 W/m² | - |
| 1778025674 | 21.67° C | 59% | 1011.3 hPa | 0 mm | 0 m/s | 0 W/m² | - |
| 1778025372 | 21.67° C | 63% | 1011.3 hPa | 0 mm | 0 m/s | 6 W/m² | - |
| 1778025069 | 22.22° C | 60% | 1011.3 hPa | 0 mm | 0 m/s | 9 W/m² | - |
| 1778024766 | 22.22° C | 57% | 1011.3 hPa | 0 mm | 0 m/s | 17 W/m² | - |
| 1778024462 | 22.22° C | 56% | 1011.3 hPa | 0 mm | 0 m/s | 26 W/m² | - |
| 1778024160 | 22.78° C | 56% | 1011.6 hPa | 0 mm | 0 m/s | 32 W/m² | - |
| 1778023857 | 22.78° C | 57% | 1011.3 hPa | 0 mm | 0 m/s | 38 W/m² | - |
| 1778023555 | 23.33° C | 57% | 1011.6 hPa | 0 mm | 0 m/s | 49 W/m² | - |
| 1778023252 | 23.33° C | 57% | 1011.6 hPa | 0 mm | 0 m/s | 73 W/m² | - |
| 1778022949 | 23.33° C | 57% | 1011.6 hPa | 0 mm | 0 m/s | 77 W/m² | - |
| 1778022648 | 22.78° C | 57% | 1011.6 hPa | 0 mm | 0 m/s | 77 W/m² | - |
| 1778022345 | 22.78° C | 57% | 1011.6 hPa | 0 mm | 0 m/s | 68 W/m² | - |
| 1778022041 | 22.78° C | 57% | 1011.3 hPa | 0 mm | 0 m/s | 66 W/m² | - |
| 1778021738 | 22.78° C | 55% | 1011.3 hPa | 0 mm | 0 m/s | 61 W/m² | - |
* Rain latest hour (hover to see other rain measurements)
** Current wind speed in m/s (hover to see current wind gust speed)